Location: Unspecified
(0.0000°N, 0.0000°E)
Time: 17:44:14
(UTC+00:00)

STARLINK-35676 - Pass Details

Date: 11 January 2026
Orbit: 254 x 257 km, 43.0° (Epoch: 11 January)

Event Time Altitude Azimuth Distance (km) Brightness Sun altitude
Rises 18:41:15 0° 284° (WNW) 1,829 6.3 -7.7°
Reaches altitude 10° 18:44:11 10° 241° (WSW) 1,029 5.7 -8.4°
Maximum altitude 18:44:48 11° 225° (SW) 994 5.2 -8.5°
Drops below altitude 10° 18:45:26 10° 209° (SSW) 1,030 4.9 -8.7°
Sets 18:48:22 0° 166° (SSE) 1,832 5.4 -9.4°
